Location: Alafon
(8.4500°N, 4.2333°E)
Time: 10:12:35
(UTC+00:00)

Vanguard 2 - All Passes

Search period start: 03 August 2021 00:00
Search period end: 13 August 2021 00:00
Orbit: 552 x 2937 km, 32.9° (Epoch: 02 August)

Date Brightness Start Highest point End Pass type
(mag) Time Alt. Az. Time Alt. Az. Time Alt. Az.
03 Aug - 00:33:01 10° WSW 00:39:21 77° NNW 00:43:39 10° NE night (unlit)
03 Aug - 07:08:03 10° N 07:10:07 11° NNE 07:12:24 10° NE daylight
03 Aug - 09:12:24 10° NW 09:19:54 49° NE 09:32:18 10° ESE daylight
03 Aug - 11:20:25 10° WNW 11:30:38 62° SSW 11:46:40 10° SE daylight
03 Aug - 13:33:13 10° WSW 13:44:04 25° SSW 13:57:11 10° SSE daylight
03 Aug - 20:34:38 10° S 20:36:14 10° SSE 20:37:44 10° SSE visible
03 Aug - 22:40:22 10° SSW 22:48:06 33° SSE 22:53:11 10° E night (unlit)
04 Aug - 00:51:15 10° WSW 00:57:00 42° NW 01:01:06 10° NE night (unlit)
04 Aug - 07:24:14 10° N 07:28:11 16° NNE 07:33:17 10° ENE daylight
04 Aug - 09:29:50 10° NW 09:37:39 67° NE 09:50:59 10° ESE daylight
04 Aug - 11:38:40 10° WNW 11:48:50 47° SSW 12:04:09 10° SE daylight
04 Aug - 13:53:34 10° WSW 14:02:57 19° SSW 14:13:43 10° SSE daylight
04 Aug - 20:48:52 10° SSW 20:55:01 16° SSE 20:59:50 10° SE visible
04 Aug - 22:57:41 10° SW 23:06:10 51° SSE 23:11:24 10° ENE night (unlit)
05 Aug - 01:09:58 10° W 01:14:38 25° NW 01:18:15 10° NNE night (unlit)
05 Aug - 07:41:04 10° NNW 07:46:03 24° NE 07:53:12 10° E daylight
05 Aug - 09:47:26 10° NW 09:55:27 89° NE 10:09:16 10° SE daylight
05 Aug - 11:57:17 10° W 12:07:12 35° SSW 12:21:22 10° SSE daylight
05 Aug - 14:15:11 10° SW 14:22:09 14° SSW 14:29:42 10° S daylight
05 Aug - 21:05:09 10° SSW 21:13:35 23° SSE 21:19:32 10° ESE visible
05 Aug - 23:15:24 10° SW 23:24:04 81° SSE 23:29:17 10° ENE night (unlit)
06 Aug - 01:29:24 10° WNW 01:32:21 15° NNW 01:34:54 10° N night (unlit)
06 Aug - 07:58:09 10° NNW 08:03:48 34° NE 08:12:34 10° E daylight
06 Aug - 10:05:13 10° WNW 10:13:22 69° SSW 10:27:12 10° SE daylight
06 Aug - 12:16:25 10° WSW 12:25:46 27° SSW 12:38:19 10° SSE daylight
06 Aug - 14:40:48 10° SSW 14:41:42 10° SSW 14:42:37 10° SSW daylight
06 Aug - 19:14:18 10° S 19:18:55 12° SSE 19:23:01 10° SE visible
06 Aug - 21:22:01 10° SSW 21:31:59 33° SSE 21:38:25 10° E visible
06 Aug - 23:33:29 10° WSW 23:41:47 64° NW 23:46:53 10° NE night (unlit)
07 Aug - 08:15:24 10° NW 08:21:27 50° NE 08:31:28 10° ESE daylight
07 Aug - 10:23:17 10° WNW 10:31:27 50° SSW 10:44:50 10° SE daylight
07 Aug - 12:36:15 10° WSW 12:44:33 20° SSW 12:54:56 10° SSE daylight
07 Aug - 19:29:43 10° SSW 19:37:54 17° SSE 19:44:21 10° ESE visible
07 Aug - 21:39:17 10° SW 21:50:12 47° SSE 21:56:47 10° ENE visible
07 Aug - 23:51:59 10° WSW 23:59:25 40° NW 00:04:15 10° NNE night (unlit)
08 Aug - 06:27:49 10° N 06:30:26 14° NNE 06:33:32 10° ENE daylight
08 Aug - 08:32:51 10° NW 08:39:08 73° NE 08:49:57 10° ESE daylight
08 Aug - 10:41:41 10° W 10:49:43 37° SSW 11:02:09 10° SSE daylight
08 Aug - 12:57:12 10° SW 13:03:37 14° SSW 13:11:00 10° S daylight
08 Aug - 19:46:08 10° SSW 19:56:38 24° SSE 20:04:11 10° ESE visible
08 Aug - 21:56:53 10° SW 22:08:13 69° SSE 22:14:48 10° ENE visible
09 Aug - 00:10:57 10° W 00:17:03 26° NW 00:21:22 10° NNE night (unlit)
09 Aug - 06:44:19 10° NNW 06:48:14 21° NE 06:53:29 10° E daylight
09 Aug - 08:50:31 10° WNW 08:56:55 79° SSW 09:08:02 10° SE daylight
09 Aug - 11:00:32 10° W 11:08:11 27° SSW 11:19:08 10° SSE daylight
09 Aug - 13:21:16 10° SSW 13:22:58 10° SSW 13:24:43 10° S daylight
09 Aug - 17:54:46 10° S 18:00:54 13° SSE 18:06:22 10° SE daylight
09 Aug - 20:03:01 10° SSW 20:15:10 33° SSE 20:23:16 10° E visible
09 Aug - 22:14:51 10° WSW 22:26:05 84° NW 22:32:33 10° NE visible
10 Aug - 00:30:32 10° WNW 00:34:47 17° NW 00:38:09 10° N night (unlit)
10 Aug - 07:01:19 10° NNW 07:05:53 33° NE 07:12:39 10° E daylight
10 Aug - 09:08:25 10° WNW 09:14:52 54° SSW 09:25:47 10° SE daylight
10 Aug - 11:20:04 10° WSW 11:26:50 19° SSW 11:35:44 10° SSE daylight
10 Aug - 18:10:30 10° SSW 18:20:04 18° SSE 18:27:57 10° ESE visible
10 Aug - 20:20:13 10° SW 20:33:31 45° SSE 20:41:50 10° E visible
10 Aug - 22:33:11 10° WSW 22:43:47 58° NW 22:50:04 10° NE visible
11 Aug - 00:51:31 10° NW 00:52:41 10° NNW 00:53:47 10° NNW night (unlit)
11 Aug - 07:18:35 10° NW 07:23:30 53° NE 07:31:19 10° ESE daylight
11 Aug - 09:26:39 10° W 09:33:01 37° SSW 09:43:10 10° SE daylight
11 Aug - 11:40:43 10° SW 11:45:42 14° SSW 11:51:37 10° S daylight
11 Aug - 18:26:58 10° SSW 18:38:57 24° SSE 18:48:08 10° ESE visible
11 Aug - 20:37:44 10° SW 20:51:40 61° SSE 21:00:00 10° ENE visible
11 Aug - 22:51:55 10° WSW 23:01:27 40° NW 23:07:25 10° NNE visible
12 Aug - 05:31:14 10° N 05:32:53 12° NNE 05:34:41 10° NE daylight
12 Aug - 07:36:05 10° NW 07:41:11 85° NE 07:49:34 10° ESE daylight
12 Aug - 09:45:19 10° W 09:51:21 26° SSW 10:00:11 10° SSE daylight
12 Aug - 16:36:13 10° S 16:42:15 12° SSE 16:47:57 10° SE daylight
12 Aug - 18:43:49 10° SSW 18:57:36 32° SSE 19:07:32 10° E visible
12 Aug - 20:55:33 10° SW 21:09:39 82° SSE 21:17:54 10° ENE visible
12 Aug - 23:11:06 10° W 23:19:10 28° NW 23:24:35 10° NNE visible
